TimeCDT,TemperatureF,Dew PointF,Humidity,Sea Level PressureIn,VisibilityMPH,Wind Direction,Wind SpeedMPH,Gust SpeedMPH,PrecipitationIn,Events,Conditions,WindDirDegrees,DateUTC
12:56 AM,41.9,28.0,58,30.22,10.0,NNE,6.9,-,N/A,,Clear,20,2013-04-02 05:56:00
1:56 AM,41.0,27.1,58,30.22,10.0,North,8.1,-,N/A,,Clear,360,2013-04-02 06:56:00
2:56 AM,39.9,26.1,58,30.23,10.0,North,6.9,-,N/A,,Partly Cloudy,360,2013-04-02 07:56:00
3:56 AM,41.0,26.1,55,30.24,10.0,NNE,9.2,-,N/A,,Mostly Cloudy,20,2013-04-02 08:56:00
4:56 AM,37.9,26.1,62,30.27,10.0,North,5.8,-,N/A,,Clear,350,2013-04-02 09:56:00
5:56 AM,38.8,26.1,60,30.27,10.0,North,6.9,-,N/A,,Mostly Cloudy,10,2013-04-02 10:56:00
6:56 AM,39.9,26.1,58,30.30,10.0,North,6.9,-,N/A,,Overcast,10,2013-04-02 11:56:00
7:56 AM,41.0,25.2,53,30.32,10.0,NNE,9.2,-,N/A,,Mostly Cloudy,20,2013-04-02 12:56:00
8:56 AM,41.9,25.2,52,30.33,10.0,NE,8.1,-,N/A,,Mostly Cloudy,50,2013-04-02 13:56:00
9:56 AM,45.9,24.1,42,30.34,10.0,NNE,11.5,-,N/A,,Partly Cloudy,30,2013-04-02 14:56:00
10:56 AM,48.9,24.1,38,30.32,10.0,NNW,6.9,-,N/A,,Clear,340,2013-04-02 15:56:00
11:56 AM,48.9,23.0,36,30.32,10.0,NNE,9.2,-,N/A,,Mostly Cloudy,30,2013-04-02 16:56:00
12:56 PM,48.9,23.0,36,30.30,10.0,Variable,3.5,-,N/A,,Partly Cloudy,0,2013-04-02 17:56:00
1:56 PM,50.9,22.1,32,30.28,10.0,NW,8.1,-,N/A,,Mostly Cloudy,320,2013-04-02 18:56:00
2:56 PM,48.9,22.1,35,30.29,10.0,NNW,9.2,-,N/A,,Overcast,330,2013-04-02 19:56:00
3:56 PM,48.9,21.0,33,30.27,10.0,North,9.2,-,N/A,,Scattered Clouds,350,2013-04-02 20:56:00
4:56 PM,47.8,26.1,43,30.27,10.0,Calm,Calm,-,N/A,,Mostly Cloudy,0,2013-04-02 21:56:00
5:56 PM,45.9,32.0,58,30.28,10.0,NNW,5.8,-,0.00,Rain,Light Rain,330,2013-04-02 22:56:00
6:56 PM,45.0,32.0,60,30.27,10.0,NW,4.6,-,0.00,,Mostly Cloudy,320,2013-04-02 23:56:00
7:56 PM,45.0,29.1,54,30.29,10.0,WNW,6.9,-,N/A,,Overcast,290,2013-04-03 00:56:00
8:56 PM,45.0,29.1,54,30.30,10.0,Calm,Calm,-,N/A,,Overcast,0,2013-04-03 01:56:00
9:56 PM,43.9,30.0,58,30.30,10.0,Calm,Calm,-,N/A,,Scattered Clouds,0,2013-04-03 02:56:00
10:56 PM,41.9,30.0,63,30.30,10.0,Calm,Calm,-,N/A,,Mostly Cloudy,0,2013-04-03 03:56:00
11:56 PM,43.9,29.1,56,30.31,10.0,North,5.8,-,N/A,,Overcast,360,2013-04-03 04:56:00